This is the latest recevied weather packets stored in our database for station/object AD0YN. If no packets are shown the sender has not sent any weather packets the latest 10 day(s).
| Time | Temp. | Humidity | Pressure | Rain* | Wind** | Luminosity | Snow |
|---|---|---|---|---|---|---|---|
| 1777921180 | 26.11° C | 42% | 1001.6 hPa | 0 mm | - | 913 W/m² | - |
| 1777920877 | 26.11° C | 42% | 1001.8 hPa | 0 mm | - | 914 W/m² | - |
| 1777920573 | 25.56° C | 43% | 1001.6 hPa | 0 mm | - | 918 W/m² | - |
| 1777920269 | 26.11° C | 41% | 1001.9 hPa | 0 mm | - | 919 W/m² | - |
| 1777919965 | 26.11° C | 43% | 1001.5 hPa | 0 mm | - | 923 W/m² | - |
| 1777919663 | 25.56° C | 43% | 1001.8 hPa | 0 mm | - | 922 W/m² | - |
| 1777919361 | 25.56° C | 45% | 1001.8 hPa | 0 mm | - | 923 W/m² | - |
| 1777919057 | 25° C | 44% | 1001.8 hPa | 0 mm | - | 922 W/m² | - |
| 1777918754 | 25.56° C | 44% | 1001.8 hPa | 0 mm | - | 922 W/m² | - |
| 1777918452 | 25° C | 45% | 1001.7 hPa | 0 mm | - | 922 W/m² | - |
| 1777918150 | 25° C | 42% | 1001.8 hPa | 0 mm | - | 921 W/m² | - |
| 1777917849 | 25° C | 43% | 1001.8 hPa | 0 mm | - | 921 W/m² | - |
| 1777917546 | 25° C | 48% | 1002 hPa | 0 mm | - | 919 W/m² | - |
| 1777917243 | 25° C | 43% | 1002 hPa | 0 mm | - | 918 W/m² | - |
| 1777916941 | 25° C | 43% | 1001.7 hPa | 0 mm | - | 915 W/m² | - |
| 1777916638 | 24.44° C | 45% | 1002.2 hPa | 0 mm | - | 914 W/m² | - |
| 1777916335 | 25° C | 42% | 1002.2 hPa | 0 mm | - | 912 W/m² | - |
| 1777916031 | 24.44° C | 43% | 1002 hPa | 0 mm | - | 910 W/m² | - |
| 1777915729 | 24.44° C | 44% | 1002.2 hPa | 0 mm | - | 907 W/m² | - |
| 1777915425 | 24.44° C | 44% | 1002.2 hPa | 0 mm | - | 902 W/m² | - |
| 1777915121 | 24.44° C | 44% | 1002 hPa | 0 mm | - | 898 W/m² | - |
| 1777914819 | 24.44° C | 46% | 1002.5 hPa | 0 mm | - | 893 W/m² | - |
| 1777914516 | 24.44° C | 45% | 1002.6 hPa | 0 mm | - | 886 W/m² | - |
| 1777914212 | 23.89° C | 43% | 1002.5 hPa | 0 mm | - | 881 W/m² | - |
| 1777913909 | 23.89° C | 44% | 1002.7 hPa | 0 mm | - | 874 W/m² | - |
* Rain latest hour (hover to see other rain measurements)
** Current wind speed in m/s (hover to see current wind gust speed)